Stations météo

Publicité
Rennes, France (7130): Température de l'air & dewpoint: 18.10.2018 00:00:00 - 24.10.2018 00:00:00 (CEST)Rennes, France (7130): Température de l'air 5cm: 18.10.2018 00:00:00 - 24.10.2018 00:00:00 (CEST)Rennes, France (7130): Température de l'air -20cm & Température de l'air -100cm: 18.10.2018 00:00:00 - 24.10.2018 00:00:00 (CEST)Rennes, France (7130): Vitesse du vent & gusts: 18.10.2018 00:00:00 - 24.10.2018 00:00:00 (CEST)Rennes, France (7130): Direction du vent: 18.10.2018 00:00:00 - 24.10.2018 00:00:00 (CEST)Rennes, France (7130): reduced air pressure: 18.10.2018 00:00:00 - 24.10.2018 00:00:00 (CEST)Rennes, France (7130): visibility: 18.10.2018 00:00:00 - 24.10.2018 00:00:00 (CEST)Rennes, France (7130): Ensoleillement: 18.10.2018 00:00:00 - 24.10.2018 00:00:00 (CEST)Rennes, France (7130): Quantités de précipitations: 18.10.2018 00:00:00 - 24.10.2018 00:00:00 (CEST)
Date & Time tt [°C] td [°C] tt 5cm [°C] tt -20cm [°C] tt -100cm [°C] ff [km/h] ff [knt] fx [km/h] fx [knt] dd ppp [hPa] vv [km] sd [min] rr [mm]
24.10.2018 00:00:00 8,4 8,1 4,3 13,7 15,2 10 5 13 7 WNW 1032,7 9 0 0,0
23.10.2018 23:00:00 9,1 8,6 4,0 13,7 15,2 9 5 14 7 W 1032,6 14 0 0,0
23.10.2018 22:00:00 9,9 8,7 3,8 13,7 15,2 10 5 13 7 NNW 1033,0 20 0 0,0
23.10.2018 21:00:00 9,8 8,1 2,7 13,7 15,2 9 5 15 8 NW 1033,2 25 0 0,0
23.10.2018 20:00:00 11,0 7,5 3,9 13,7 15,2 7 4 15 8 NNW 1033,3 29 0 0,0
23.10.2018 19:00:00 12,6 7,3 9,2 13,6 15,3 10 5 23 12 NW 1032,9 44 39 0,0
23.10.2018 18:00:00 16,1 8,6 16,8 13,5 15,2 16 8 23 13 NW 1033,0 33 60 0,0
23.10.2018 17:00:00 17,1 9,8 18,9 13,5 15,2 15 8 21 12 NW 1033,2 35 55 0,0
23.10.2018 16:00:00 17,0 10,1 18,7 13,4 15,3 14 8 21 11 NNW 1033,6 21 4 0,0
23.10.2018 15:00:00 16,7 9,4 21,7 13,4 15,3 9 5 21 11 NNW 1034,1 36 60 0,0
23.10.2018 14:00:00 16,1 9,0 20,3 13,3 15,3 12 6 23 12 NNW 1034,9 19 60 0,0
23.10.2018 13:00:00 14,4 8,8 20,7 13,3 15,3 13 7 25 13 NNW 1035,7 39 60 0,0
23.10.2018 12:00:00 11,9 8,4 18,3 13,4 15,3 4 2 9 5 NW 1036,3 30 60 0,0
23.10.2018 11:00:00 9,2 8,3 10,0 13,4 15,3 3 2 5 3 S 1036,3 18 45 0,0
23.10.2018 10:00:00 6,5 6,4 -0,1 13,5 15,3 2 1 6 3 NNW 1036,7 9 58 0,0
23.10.2018 09:00:00 4,4 4,3 -1,2 13,6 15,3 0 0 5 3 N 1035,9 0,3 0 0,0
23.10.2018 08:00:00 4,5 4,2 -1,0 13,7 15,3 0 0 8 4 N 1035,8 1,8 0 0,0
23.10.2018 07:00:00 4,8 4,5 -0,7 13,7 15,3 9 5 11 6 N 1036,1 17 0 0,0
23.10.2018 06:00:00 5,0 4,7 -1,4 13,8 15,3 10 5 12 7 N 1036,0 19 0 0,0
23.10.2018 05:00:00 4,9 4,3 -1,0 13,9 15,3 5 3 9 5 N 1036,3 12 0 0,0
23.10.2018 04:00:00 6,5 5,8 1,9 13,9 15,3 5 3 13 7 N 1036,9 24 0 0,0
23.10.2018 03:00:00 6,1 5,4 2,0 14,0 15,3 11 6 13 7 NNW 1036,8 20 0 0,0
23.10.2018 02:00:00 7,7 5,8 4,2 14,0 15,3 5 3 16 8 N 1036,8 30 0 0,0
23.10.2018 01:00:00 7,5 5,6 4,6 14,1 15,3 8 4 14 8 N 1036,9 28 0 0,0
23.10.2018 00:00:00 8,1 5,9 5,8 14,1 15,3 8 5 21 12 N 1037,1 30 0 0,0
22.10.2018 23:00:00 8,5 6,3 6,1 14,2 15,3 12 6 19 10 N 1036,9 29 0 0,0
22.10.2018 22:00:00 8,8 6,4 5,9 14,2 15,3 11 6 18 10 N 1036,6 28 0 0,0
22.10.2018 21:00:00 10,0 6,9 7,7 14,2 15,3 11 6 26 14 NNE 1036,2 32 0 0,0
22.10.2018 20:00:00 10,8 7,3 8,5 14,2 15,4 11 6 22 12 N 1036,0 37 0 0,0
22.10.2018 19:00:00 12,5 8,0 10,9 14,2 15,4 12 7 29 16 NNE 1035,1 42 1 0,0
22.10.2018 18:00:00 13,7 9,3 13,8 14,2 15,4 22 12 43 23 NNE 1034,8 39 0 0,0
22.10.2018 17:00:00 14,6 10,4 15,2 14,1 15,4 23 12 42 23 NNE 1034,4 50 0 0,0
22.10.2018 16:00:00 14,9 11,1 15,6 14,1 15,4 18 10 38 20 N 1033,9 49 0 0,0
22.10.2018 15:00:00 15,0 11,2 16,1 14,0 15,4 23 12 40 22 NNE 1033,5 39 0 0,0
22.10.2018 14:00:00 14,7 11,5 15,7 14,0 15,4 26 14 37 20 NNE 1033,7 43 0 0,0
22.10.2018 13:00:00 14,9 12,0 15,6 13,9 15,4 23 12 42 23 NNE 1033,8 50 0 0,0
22.10.2018 12:00:00 15,0 12,5 15,2 13,9 15,4 21 11 37 20 NNE 1033,2 46 0 0,0
22.10.2018 11:00:00 14,9 13,1 14,0 13,9 15,4 21 11 36 20 NNE 1032,7 30 0 0,0
22.10.2018 10:00:00 14,2 13,2 13,3 13,9 15,4 16 9 30 16 N 1032,2 17 0 0,0
22.10.2018 09:00:00 13,9 12,9 11,4 13,9 15,4 18 10 29 15 N 1031,3 9 0 0,0
22.10.2018 08:00:00 12,6 12,0 10,8 14,0 15,4 12 7 22 12 N 1030,7 5 0 0,0
22.10.2018 07:00:00 13,2 12,1 11,0 14,0 15,4 12 7 22 12 N 1030,1 6 0 0,0
22.10.2018 06:00:00 12,7 12,5 5,6 14,0 15,4 8 5 13 7 N 1029,9 6 0 0,0
22.10.2018 05:00:00 11,2 10,6 7,1 14,0 15,5 6 4 23 12 NW 1029,5 2,8 0 0,0
22.10.2018 04:00:00 13,0 11,9 9,3 14,1 15,5 19 11 36 19 NNE 1029,3 4,0 0 0,0
22.10.2018 03:00:00 11,2 10,3 7,7 14,1 15,5 11 6 22 12 NNW 1029,1 4,3 0 0,0
22.10.2018 02:00:00 9,8 8,7 5,5 14,1 15,5 11 6 15 8 NNW 1028,9 7 0 0,0
22.10.2018 01:00:00 9,2 8,9 4,7 14,2 15,5 10 5 14 8 NNW 1028,7 7 0 0,0
22.10.2018 00:00:00 9,7 8,8 4,8 14,2 15,5 8 4 10 6 NW 1028,2 3,6 0 0,0
21.10.2018 23:00:00 11,0 9,1 8,0 14,2 15,5 8 4 13 7 N 1027,7 9 0 0,0
21.10.2018 22:00:00 12,8 9,6 10,0 14,2 15,5 9 5 17 9 N 1027,1 3,2 0 0,0
21.10.2018 21:00:00 12,4 9,0 8,1 14,2 15,5 10 5 14 8 NNW 1026,9 19 0 0,0
21.10.2018 20:00:00 13,2 6,3 9,5 14,1 15,5 8 4 14 8 N 1026,4 44 0 0,0
21.10.2018 19:00:00 15,2 7,0 13,0 14,0 15,5 10 5 23 12 NNW 1026,2 39 43 0,0
21.10.2018 18:00:00 18,3 6,8 20,7 14,0 15,5 14 7 21 12 N 1025,9 33 60 0,0
21.10.2018 17:00:00 19,5 5,2 23,3 13,9 15,5 16 9 27 15 N 1025,8 25 60 0,0
21.10.2018 16:00:00 20,0 4,5 25,3 13,8 15,5 14 8 21 12 NNE 1026,2 22 60 0,0
21.10.2018 15:00:00 19,3 5,7 24,2 13,7 15,5 11 6 19 10 N 1026,6 15 60 0,0
21.10.2018 14:00:00 18,1 6,9 23,8 13,7 15,5 11 6 19 10 N 1027,1 15 60 0,0
21.10.2018 13:00:00 15,4 9,7 22,0 13,7 15,5 8 5 13 7 N 1027,8 8 60 0,0
21.10.2018 12:00:00 12,0 8,7 17,2 13,8 15,6 4 2 8 4 N 1028,0 11 60 0,0
21.10.2018 11:00:00 8,6 8,3 8,9 13,8 15,5 2 1 7 4 NNW 1028,4 8 60 0,0
21.10.2018 10:00:00 5,6 5,6 -0,7 13,9 15,6 6 4 8 4 WNW 1028,5 2,5 60 0,0
21.10.2018 09:00:00 2,6 2,5 -2,0 14,0 15,6 5 3 6 4 NW 1028,3 0,2 2 0,0
21.10.2018 08:00:00 3,4 3,3 -2,0 14,1 15,6 5 3 6 4 N 1028,1 0,1 0 0,0
21.10.2018 07:00:00 3,7 3,6 -2,7 14,2 15,6 3 1 6 4 NNW 1028,1 0,1 0 0,0
21.10.2018 06:00:00 3,9 3,8 -2,2 14,3 15,6 5 3 6 3 N 1028,3 0,1 0 0,0
21.10.2018 05:00:00 4,2 3,9 -1,8 14,4 15,6 5 3 6 3 W 1028,7 0,2 0 0,0
21.10.2018 04:00:00 5,6 5,0 -1,0 14,5 15,6 0 0 8 4 N 1029,2 2,7 0 0,0
21.10.2018 03:00:00 6,8 5,7 -0,6 14,5 15,6 4 2 9 5 NNE 1029,4 8 0 0,0
21.10.2018 02:00:00 7,4 6,3 -0,2 14,6 15,6 6 4 9 5 NNE 1029,7 10 0 0,0
21.10.2018 01:00:00 7,5 6,4 0,1 14,7 15,6 4 2 13 7 N 1029,9 3,9 0 0,0
21.10.2018 00:00:00 8,6 6,7 2,2 14,7 15,6 8 4 14 8 NNE 1030,1 14 0 0,0
20.10.2018 23:00:00 8,9 8,0 1,9 14,8 15,6 5 3 8 5 N 1029,9 1,9 0 0,0
20.10.2018 22:00:00 8,9 7,7 2,5 14,8 15,6 6 3 10 5 N 1029,8 6 0 0,0
20.10.2018 21:00:00 11,6 7,7 6,4 14,8 15,6 8 4 12 6 N 1029,4 19 0 0,0
20.10.2018 20:00:00 13,9 7,9 8,0 14,8 15,6 8 4 11 6 N 1029,1 28 0 0,0
20.10.2018 19:00:00 15,5 8,2 13,0 14,8 15,6 10 5 18 10 NNE 1028,9 32 45 0,0
20.10.2018 18:00:00 17,8 8,4 20,1 14,7 15,6 12 6 20 11 NNE 1028,8 23 60 0,0
20.10.2018 17:00:00 18,4 8,6 23,1 14,6 15,6 13 7 23 12 NNE 1028,8 18 60 0,0
20.10.2018 16:00:00 18,7 9,5 23,6 14,6 15,6 16 9 26 14 NNE 1029,4 11 60 0,0
20.10.2018 15:00:00 18,1 10,2 22,7 14,5 15,6 16 9 30 16 NE 1029,7 8 60 0,0
20.10.2018 14:00:00 17,3 10,2 21,1 14,5 15,6 18 10 31 17 NE 1030,1 4,1 60 0,0
20.10.2018 13:00:00 15,5 9,4 19,1 14,5 15,6 18 10 28 15 NE 1030,9 7 60 0,0
20.10.2018 12:00:00 14,0 10,0 15,8 14,6 15,7 15 8 25 14 NE 1031,0 7 60 0,0
20.10.2018 11:00:00 11,8 9,2 11,0 14,6 15,7 13 7 23 12 NNE 1031,0 7 60 0,0
20.10.2018 10:00:00 10,3 8,2 6,6 14,7 15,7 11 6 18 10 NNE 1030,2 11 60 0,0
20.10.2018 09:00:00 8,6 7,4 3,0 14,7 15,6 11 6 17 9 NNE 1029,6 9 3 0,0
20.10.2018 08:00:00 8,2 7,6 2,3 14,8 15,7 6 3 12 6 NNE 1029,0 3,9 0 0,0
20.10.2018 07:00:00 9,0 8,1 5,4 14,8 15,6 10 5 16 9 NNE 1028,8 4,7 0 0,2
20.10.2018 06:00:00 8,8 8,2 5,4 14,9 15,7 9 5 14 8 NNE 1028,7 5 0 0,0
20.10.2018 05:00:00 8,9 8,6 5,2 15,0 15,7 10 5 13 7 N 1028,2 4,7 0 0,0
20.10.2018 04:00:00 9,6 9,0 7,1 15,0 15,7 9 5 20 11 N 1028,1 4,5 0 0,0
20.10.2018 03:00:00 10,4 9,6 5,7 15,1 15,7 12 6 17 9 NNE 1027,8 4,6 0 0,0
20.10.2018 02:00:00 10,0 8,9 6,1 15,1 15,7 5 3 12 6 N 1028,0 6 0 0,0
20.10.2018 01:00:00 11,2 9,9 8,1 15,1 15,7 9 5 17 9 N 1027,6 7 0 0,0
20.10.2018 00:00:00 11,2 9,6 8,4 15,2 15,7 7 4 13 7 N 1027,6 8 0 0,0
19.10.2018 23:00:00 11,6 9,7 8,4 15,2 15,7 10 5 18 10 N 1027,0 10 0 0,0
19.10.2018 22:00:00 12,6 10,1 9,6 15,2 15,7 11 6 16 9 NNE 1026,5 10 0 0,0
19.10.2018 21:00:00 13,5 10,3 10,4 15,2 15,7 10 5 19 11 NNE 1026,0 13 0 0,0
19.10.2018 20:00:00 14,5 10,7 12,4 15,1 15,7 10 5 21 12 N 1025,6 14 0 0,0
19.10.2018 19:00:00 16,5 11,0 15,2 15,1 15,7 13 7 27 15 N 1024,5 14 47 0,0
19.10.2018 18:00:00 18,2 11,3 20,0 15,0 15,7 15 8 28 15 N 1023,9 11 60 0,0
19.10.2018 17:00:00 18,9 11,7 22,7 15,0 15,7 17 9 27 15 NNE 1023,4 10 60 0,0
19.10.2018 16:00:00 19,1 11,9 23,9 14,9 15,7 14 8 26 14 NNE 1023,3 6 60 0,0
19.10.2018 15:00:00 18,2 12,0 23,6 14,8 15,7 13 7 30 16 NE 1023,3 7 60 0,0
19.10.2018 14:00:00 17,2 11,2 22,4 14,8 15,7 14 8 24 13 NNE 1023,7 9 60 0,0
19.10.2018 13:00:00 16,3 11,2 20,5 14,8 15,7 15 8 23 12 N 1024,2 8 60 0,0
19.10.2018 12:00:00 15,0 11,4 18,0 14,9 15,7 14 7 22 12 N 1024,4 8 60 0,0
19.10.2018 11:00:00 13,3 11,2 12,5 14,9 15,7 10 6 21 11 NNE 1024,0 6 60 0,0
19.10.2018 10:00:00 10,7 10,5 5,0 15,0 15,7 8 4 14 8 N 1023,8 6 60 0,0
19.10.2018 09:00:00 8,0 7,7 3,8 15,1 15,7 0 0 11 6 N 1023,1 0,7 3 0,0
19.10.2018 08:00:00 9,0 8,4 4,7 15,1 15,7 5 3 15 8 N 1022,4 6 0 0,0
19.10.2018 07:00:00 9,3 9,0 5,7 15,2 15,7 7 4 13 7 N 1022,4 6 0 0,0
19.10.2018 06:00:00 9,0 8,9 5,4 15,2 15,7 7 4 14 8 N 1022,7 8 0 0,2
19.10.2018 05:00:00 8,2 7,9 4,9 15,3 15,7 9 5 10 6 NW 1022,8 0,2 0 0,0
19.10.2018 04:00:00 10,0 9,7 5,5 15,4 15,7 6 3 9 5 N 1022,5 0,8 0 0,0
19.10.2018 03:00:00 10,2 9,7 6,1 15,4 15,7 8 4 11 6 N 1022,6 6 0 0,0
19.10.2018 02:00:00 10,2 9,7 4,2 15,5 15,7 7 4 13 7 N 1022,6 8 0 0,0
19.10.2018 01:00:00 8,9 8,4 4,8 15,5 15,7 5 3 11 6 NNW 1022,7 1,9 0 0,0
19.10.2018 00:00:00 10,4 9,9 5,7 15,6 15,7 6 3 11 6 N 1022,8 8 0 0,0
18.10.2018 23:00:00 12,1 10,0 8,1 15,6 15,7 8 4 11 6 N 1022,6 18 0 0,0
18.10.2018 22:00:00 13,0 10,0 9,4 15,6 15,7 9 5 13 7 N 1022,4 30 0 0,0
18.10.2018 21:00:00 14,1 10,3 11,4 15,6 15,8 8 5 16 9 N 1022,1 38 0 0,0
18.10.2018 20:00:00 15,4 10,2 12,8 15,6 15,7 11 6 26 14 NNE 1021,4 57 0 0,0
18.10.2018 19:00:00 17,3 10,7 16,2 15,5 15,7 19 11 34 18 NNE 1021,0 43 49 0,0
18.10.2018 18:00:00 19,1 11,4 21,1 15,5 15,8 17 9 31 17 NNE 1020,5 34 60 0,0
18.10.2018 17:00:00 19,9 11,1 23,3 15,4 15,8 20 11 33 18 N 1020,7 32 60 0,0
18.10.2018 16:00:00 20,4 10,5 24,8 15,4 15,8 20 11 33 18 NNE 1020,8 25 60 0,0
18.10.2018 15:00:00 20,3 10,7 25,2 15,3 15,8 18 10 29 15 N 1021,0 25 60 0,0
18.10.2018 14:00:00 20,4 10,2 25,3 15,3 15,7 16 8 26 14 NNE 1021,6 27 60 0,0
18.10.2018 13:00:00 19,2 10,7 23,6 15,3 15,8 15 8 21 12 NE 1021,9 25 60 0,0
18.10.2018 12:00:00 18,0 11,8 20,2 15,3 15,8 15 8 29 16 ENE 1022,2 14 60 0,0
18.10.2018 11:00:00 16,3 12,1 15,6 15,3 15,7 13 7 22 12 NE 1022,3 9 60 0,0
18.10.2018 10:00:00 14,6 12,1 12,1 15,3 15,7 14 7 20 11 NNE 1022,3 9 60 0,0
18.10.2018 09:00:00 13,3 12,0 11,7 15,3 15,8 9 5 16 9 N 1021,7 8 4 0,0
18.10.2018 08:00:00 14,1 12,5 12,8 15,3 15,8 11 6 19 10 N 1020,8 8 0 0,0
18.10.2018 07:00:00 14,3 12,5 12,9 15,4 15,8 10 5 19 10 NNE 1020,7 8 0 0,0
18.10.2018 06:00:00 14,6 12,8 13,3 15,3 15,8 12 7 21 11 NNE 1020,3 8 0 0,0
18.10.2018 05:00:00 14,5 13,0 13,1 15,3 15,8 9 5 16 9 N 1020,2 6 0 0,0
18.10.2018 04:00:00 14,3 12,8 13,0 15,3 15,8 10 6 19 10 NNE 1020,1 5 0 0,0
18.10.2018 03:00:00 14,4 12,9 12,8 15,4 15,8 10 5 15 8 N 1020,0 6 0 0,0
18.10.2018 02:00:00 14,0 12,6 11,6 15,4 15,8 7 4 15 8 N 1020,1 8 0 0,0
18.10.2018 01:00:00 14,1 12,3 12,6 15,4 15,8 10 6 16 9 N 1020,2 13 0 0,0
18.10.2018 00:00:00 13,8 12,5 12,9 15,4 15,8 7 4 16 9 NNW 1020,2 6 0 0,6

tt = Température de l'air
td = dewpoint
tt 5cm = Température de l'air 5cm
tt -20cm = Température de l'air -20cm
tt -100cm = Température de l'air -100cm
ff = Vitesse du vent
fx = gusts
dd = Direction du vent
ppp = reduced air pressure
vv = visibility
sd = Ensoleillement
rr = Quantités de précipitations

stations d'obs. à proximité